This is the latest recevied weather packets stored in our database for station/object KH6DH-13. If no packets are shown the sender has not sent any weather packets the latest 10 day(s).
| Time | Temp. | Humidity | Pressure | Rain* | Wind** | Luminosity | Snow |
|---|---|---|---|---|---|---|---|
| 1788420850 | 26.11° C | - | - | 0 mm | 0.45 m/s, 138° | - | - |
| 1788420249 | 26.67° C | - | - | 0 mm | 2.24 m/s, 131° | - | - |
| 1788419648 | 26.67° C | - | - | 0 mm | 1.34 m/s, 91° | - | - |
| 1788419047 | 26.67° C | - | - | 0 mm | 0.45 m/s, 229° | - | - |
| 1788418446 | 26.67° C | - | - | 0 mm | 1.34 m/s, 68° | - | - |
| 1788417845 | 26.67° C | - | - | 0 mm | 2.24 m/s, 187° | - | - |
| 1788417244 | 26.67° C | - | - | 0 mm | 0 m/s | - | - |
| 1788416643 | 27.22° C | - | - | 0 mm | 1.34 m/s, 146° | - | - |
| 1788416042 | 26.67° C | - | - | 0 mm | 0.89 m/s, 165° | - | - |
| 1788415441 | 26.67° C | - | - | 0 mm | 0.45 m/s, 136° | - | - |
| 1788414840 | 27.22° C | - | - | 0 mm | 0.45 m/s, 70° | - | - |
| 1788414239 | 27.22° C | - | - | 0 mm | 0.45 m/s, 173° | - | - |
| 1788413636 | 27.22° C | - | - | 0 mm | 1.79 m/s, 101° | - | - |
| 1788413035 | 27.78° C | - | - | 0 mm | 0.89 m/s, 31° | - | - |
| 1788412434 | 27.22° C | - | - | 0 mm | 1.79 m/s, 128° | - | - |
| 1788411833 | 27.22° C | - | - | 0 mm | 1.79 m/s, 118° | - | - |
| 1788411232 | 28.33° C | - | - | 0 mm | 1.34 m/s, 285° | - | - |
| 1788410631 | 28.33° C | - | - | 0 mm | 1.34 m/s, 135° | - | - |
| 1788410030 | 28.33° C | - | - | 0 mm | 2.68 m/s, 156° | - | - |
| 1788409429 | 28.89° C | - | - | 0 mm | 2.24 m/s, 159° | - | - |
| 1788408828 | 28.89° C | - | - | 0 mm | 1.79 m/s, 122° | - | - |
| 1788408227 | 30° C | - | - | 0 mm | 2.24 m/s, 146° | - | - |
| 1788407626 | 30° C | - | - | 0 mm | 1.34 m/s, 169° | - | - |
| 1788407025 | 30° C | - | - | 0 mm | 1.79 m/s, 83° | - | - |
| 1788406424 | 29.44° C | - | - | 0 mm | 1.34 m/s, 149° | - | - |
* Rain latest hour (hover to see other rain measurements)
** Current wind speed in m/s (hover to see current wind gust speed)